CZ-3C DEB, 40869

Orbit data source: Space-Track

CZ-3C DEB, 40869 is space debris in HEO originally from a launch on Fri, 24 Feb 2012 UTC launched from the Xichang Space Center, China (XSC). Debris objects in space refer to the collection of defunct objects orbiting the Earth. Examples of debris include non-operational satellites, rocket bodies, and fragments generated from explosions, collisions, or faulty payload assembly.

Loading next visibility...
Identifier
40869, 2012-008AK
Orbit
HEO
Country
Flag of CNCN / PRC
Related business
Manufacturer
CALT
Mission
Spacecraft
Bus & Motor
Unknown
Mass
Unknown
Launch date (UTC)
2012-02-24 (14 years ago)
Launch vehicle
Unknown
Launch site
Xichang Space Center, China (XSC)
Object type
Payload
Rocket body
Debris
Shape & HBR
Unknown
Radar Cross Section
Medium (>0.1 m² and <1 m²)

Expand to show TLE details & history
Last TLE update: 5 months ago

TLE from 5 months ago
0 CZ-3C DEB
1 40869U 12008AK  25084.12490443  .00001585  00000-0  63035-1 0  9991
2 40869  18.4629 332.1867 7262175  75.3844 348.9966  2.08076827 89912
Epoch: 2025-03-25T02:59Z
TLE epoch observation values (Epoch: 2025-03-25T02:59:51.742Z)
Latitude
-0.00007°
Longitude
104.41442°
Altitude
3,962.887 km
Speed
7.855 km/s
True Right ascension
22h 08m 50s
True Declination
0° 00' 00"
Sunlit
Object was in daylight at epoch
Visualization orbit readout
Latitude
Unknown
Longitude
Unknown
Altitude
Unknown
Speed
Unknown
Apparent Right ascension
Unknown
Apparent Declination
Unknown
Sunlit
N/A
Visualization observer readout
Local Sidereal Time
22:21:03
Azimuth
Unknown
Elevation
Unknown
Doppler factor
Unknown
Orbital elements
Apogee altitude
38,368.075 km
Perigee altitude
718.726 km
Semi-major axis
25,921.538 km
Eccentricity
0.72622
Inclination
18.4629°
RAAN
332.1867°
Arg. of periapsis
75.3844°
True anomaly
283.81184°
Mean anomaly
348.9966°
Eccentric anomaly
325.32317°
Mean motion
0.52006 °/min
Orbital period
692.23 mins
BSTAR
0.063035
Loading maneuver chart data...
Computing Atmospheric mass density...
Loading historical data...
Loading historical data...
Loading historical data...
Loading historical data...
Loading historical data...
Loading historical data...
Loading historical data...

Documentation

Showing up to 5 results
|